Muskegon, MI

4:07 PM EDT on March 24, 2017 (GMT -0400)
Muskegon County

Weather History for KMKG - November, 2013

Change the Weather History Date:

Thursday, November 14, 2013

  Actual Average Record
Temperature  
Mean Temperature 45 °F 41 °F  
Max Temperature 49 °F 47 °F 64 °F (1956)
Min Temperature 41 °F 35 °F 15 °F (1995)
Degree Days  
Heating Degree Days 20 24  
Month to date heating degree days 298 306  
Since 1 July heating degree days 806 929  
Cooling Degree Days 0 0  
Month to date cooling degree days 0 0  
Year to date cooling degree days 626 566  
Moisture  
Dew Point 29 °F    
Average Humidity 55    
Maximum Humidity 60    
Minimum Humidity 49    
Precipitation  
Precipitation 0.00 in 0.12 in 1.76 in (1957)
Month to date precipitation 1.35 1.60  
Year to date precipitation 39.02 29.18  
Snow  
Snow 0.00 in 0.20 in 16.00 in (1908)
Month to date snowfall 0.1 1.4  
Since 1 July snowfall 0.1 1.6  
Since 1 September snowfall 0.1 1.6  
Snow Depth 0.00 in    
Sea Level Pressure  
Sea Level Pressure 30.01 in    
Wind  
Wind Speed 21 mph (SW)    
Max Wind Speed 31 mph    
Max Gust Speed 39 mph    
Visibility 10 miles    
Events      
T = Trace of Precipitation, MM = Missing Value Source: NWS Daily Summary

Daily Weather History Graph

Daily Weather History Graph

Search for Another Location

Airport or City:

Trip Planner

Search our weather history database for the weather conditions in past years. The results will help you decide how hot, cold, wet, or windy it might be!

Date:

Astronomy

Nov. 14, 2013 Rise Set
Actual Time 7:36 AM EST 5:21 PM EST
Civil Twilight 7:06 AM EST 5:52 PM EST
Nautical Twilight 6:31 AM EST 6:26 PM EST
Astronomical Twilight 5:58 AM EST 7:00 PM EST
Moon 3:46 PM EST (11/14) 4:27 AM EST (11/14)
Length of Visible Light 10h 45m
Length of Day
9h 44m
Waxing Gibbous, 91% of the Moon is Illuminated
Nov 14
Waxing Gibbous
Nov 17
Full
Nov 25
Last Quarter
Dec 2
New
Dec 9
First Quarter

Hourly Weather History & Observations

Time (EST) Temp. Windchill Dew Point Humidity Pressure Visibility Wind Dir Wind Speed Gust Speed Precip Events Conditions
12:55 AM 41.0 °F 30.7 °F 25.0 °F 53% 30.13 in 10.0 mi SW 25.3 mph 34.5 mph N/A   Clear
1:55 AM 42.1 °F 31.9 °F 24.1 °F 49% 30.11 in 10.0 mi SW 26.5 mph 35.7 mph N/A   Clear
2:55 AM 41.0 °F 30.9 °F 25.0 °F 53% 30.10 in 10.0 mi SW 24.2 mph 32.2 mph N/A   Clear
3:55 AM 42.1 °F 32.3 °F 25.0 °F 51% 30.08 in 10.0 mi WSW 24.2 mph 33.4 mph N/A   Clear
4:55 AM 42.1 °F 32.1 °F 26.1 °F 53% 30.06 in 10.0 mi SW 25.3 mph 32.2 mph N/A   Clear
5:55 AM 42.1 °F 33.1 °F 27.0 °F 55% 30.04 in 10.0 mi SW 20.7 mph 28.8 mph N/A   Clear
6:55 AM 42.1 °F 34.2 °F 27.0 °F 55% 30.04 in 10.0 mi SW 16.1 mph 27.6 mph N/A   Clear
7:55 AM 42.1 °F 32.6 °F 27.0 °F 55% 30.04 in 10.0 mi SW 23.0 mph 32.2 mph N/A   Partly Cloudy
8:55 AM 43.0 °F 33.8 °F 28.0 °F 56% 30.04 in 10.0 mi SW 23.0 mph 29.9 mph N/A   Partly Cloudy
9:55 AM 44.1 °F 35.2 °F 28.9 °F 55% 30.03 in 10.0 mi SW 23.0 mph 29.9 mph N/A   Partly Cloudy
10:55 AM 45.0 °F 36.6 °F 28.9 °F 53% 30.03 in 10.0 mi SSW 21.9 mph 29.9 mph N/A   Scattered Clouds
11:55 AM 45.0 °F 36.6 °F 30.9 °F 58% 30.00 in 10.0 mi SSW 21.9 mph 33.4 mph N/A   Mostly Cloudy
12:55 PM 46.0 °F 39.0 °F 30.9 °F 56% 29.98 in 10.0 mi SSW 17.3 mph 34.5 mph N/A   Mostly Cloudy
1:55 PM 46.0 °F 38.8 °F 30.9 °F 56% 29.96 in 10.0 mi SSW 18.4 mph 32.2 mph N/A   Mostly Cloudy
2:55 PM 46.0 °F 38.8 °F 30.9 °F 56% 29.95 in 10.0 mi SSW 18.4 mph 29.9 mph N/A   Mostly Cloudy
3:55 PM 46.0 °F 38.0 °F 30.9 °F 56% 29.95 in 10.0 mi SW 21.9 mph 28.8 mph N/A   Overcast
4:55 PM 46.0 °F 38.5 °F 30.9 °F 56% 29.94 in 10.0 mi SSW 19.6 mph 28.8 mph N/A   Overcast
5:55 PM 46.0 °F 38.8 °F 30.0 °F 54% 29.94 in 10.0 mi SW 18.4 mph 31.1 mph N/A   Overcast
6:55 PM 48.0 °F - 30.9 °F 52% 29.95 in 10.0 mi SW 20.7 mph 28.8 mph N/A   Overcast
7:55 PM 46.9 °F - 32.0 °F 56% 29.95 in 10.0 mi SW 16.1 mph 23.0 mph N/A   Clear
8:55 PM 46.9 °F - 33.1 °F 59% 29.95 in 10.0 mi SW 15.0 mph 21.9 mph N/A   Scattered Clouds
9:55 PM 48.0 °F - 30.9 °F 52% 29.94 in 10.0 mi SW 20.7 mph 26.5 mph N/A   Partly Cloudy
10:55 PM 48.0 °F - 32.0 °F 54% 29.94 in 10.0 mi SW 23.0 mph 28.8 mph N/A   Mostly Cloudy
11:55 PM 48.0 °F - 32.0 °F 54% 29.94 in 10.0 mi SW 17.3 mph 31.1 mph N/A   Partly Cloudy